Regional Weather Roundup
Issued by NWS

Home | Current Version | Previous Version | Graphics & Text | Print | Product List | Glossary On
Versions: 1 2 3 4 5 6 7 8 9 10 11 12 13 14 15 16 17 18 19 20 21 22 23 24 25 26 27 28 29 30 31 32 33 34 35 36 37 38 39 40 41 42 43 44 45 46 47 48 49 50
000
ASUS45 KSLC 011910
RWRUT

UTAH REGIONAL WEATHER ROUNDUP
NATIONAL WEATHER SERVICE SALT LAKE CITY UT
100 PM MDT TUE SEP 01 2015

UTZ001>011-023>025-012000-

NORTHERN UTAH

CITY           SKY/WX    TMP DP  RH WIND       PRES   REMARKS
BRIGHAM CITY   MOSUNNY   86  42  21 SW8       29.99F
HILL AFB       SUNNY     86  48  26 S10G18    30.01F
LOGAN          SUNNY     84  43  23 VRB3      30.00F
OGDEN          MOSUNNY   87  45  23 SE10G18   29.98F
PROVO AIRPORT  MOSUNNY   84  46  26 CALM      30.04F
SALT LAKE CITY MOSUNNY   90  46  21 S21G26    29.96F
VERNAL         SUNNY     79  46  31 VRB7      30.11F
WENDOVER       SUNNY     82  37  20 E10       29.97F
HEBER CITY     MOSUNNY   77  43  29 SW17      30.10F
WEST JORDAN    SUNNY     86  46  25 SE14G26   30.01F

$$

UTZ012>022-026-027-012000-

SOUTHERN/CENTRAL UTAH

CITY           SKY/WX    TMP DP  RH WIND       PRES   REMARKS
BLANDING       SUNNY     79  47  31 S5        30.27F
BRYCE CANYON   SUNNY     73  51  46 S12       30.30F
CEDAR CITY     SUNNY     83  38  20 S13G25    30.14F
DELTA          MOSUNNY   87  41  20 S10G25    30.04F
HANKSVILLE     SUNNY     86  46  25 S6        30.08F
MILFORD        SUNNY     86  44  23 S18G28    30.08F
MOAB/CYNLANDS  SUNNY     84  49  29 VRB3      30.06F
PRICE          CLOUDY    73  51  46 W10       30.18F
ST GEORGE      PTCLDY    91  50  24 CALM      29.98F
KANAB          SUNNY     81  57  44 W3        30.19F

$$

REGIONAL REPORTS     COLORADO/ARIZONA

CITY           SKY/WX    TMP DP  RH WIND       PRES   REMARKS
CRAIG, CO      MOSUNNY   78  45  30 W7        30.16F
GRAND JUNCTION MOSUNNY   78  49  35 CALM      30.11F
RIFLE          MOSUNNY   73  51  46 S7        30.16F
MONTROSE       SUNNY     83  45  26 VRB3      30.17F
CORTEZ         SUNNY     81  46  29 SW9       30.19F
PAGE, AZ       SUNNY     84  51  31 VRB6      30.09F
GRAND CANYON   SUNNY     75  51  43 MISG      30.27F
KINGMAN        SUNNY     90  50  25 N7        30.04F
FLAGSTAFF      SUNNY     73  45  36 SW6G16    30.30F

$$

REGIONAL REPORTS    NEVADA/IDAHO/WYOMING

CITY           SKY/WX    TMP DP  RH WIND       PRES   REMARKS
LAS VEGAS, NV  MOSUNNY   94  50  22 E6        29.88F HX  91
ELY            SUNNY     81  26  13 SW17G28   30.13F
ELKO           SUNNY     87  30  13 SW10G17   29.99F
POCATELLO, ID  SUNNY     78  34  20 VRB5      29.99F
BURLEY         SUNNY     79  42  26 NE5       29.95F
EVANSTON, WY   MOSUNNY   78  35  21 W20G32    30.17F
ROCK SPRINGS   MOSUNNY   77  38  24 SW15G21   30.16F
KEMMERER       SUNNY     79  28  15 SW24G35   30.17F

$$



USA.gov is the U.S. government's official web portal to all federal, state and local government web resources and services.